{"data":{"norad_id":66777,"intl_designator":"2025-276DR","name":"LUNA-1","alt_names":[],"object_type":"PAYLOAD","status":"ACTIVE","operator":null,"country":"TURK","launch_date":"2025-11-28","launch_site_code":"AFWTR","launch_vehicle":null,"mission":null,"orbit_class":"UNKNOWN","rcs_meters":null,"size_class":null,"mass_kg":null,"dimensions":null,"purposes":[],"wikipedia_slug":null,"has_3d_model":false,"image_url":null,"decayed_at":null,"tle_current":{"epoch":"2026-09-20T22:45:27.277632Z","epoch_age_seconds":79852,"freshness":"FRESH","line1":"1 66777U 25276DR  26263.94823238  .00006433  00000+0  26661-3 0  9992","line2":"2 66777  97.4178 337.2512 0000875 194.6043 165.5169 15.24239822 45045","mean_motion":15.24239822,"eccentricity":8.75e-5,"inclination_deg":97.4178,"raan_deg":337.2512,"arg_perigee_deg":194.6043,"mean_anomaly_deg":165.5169,"bstar":0.00026661,"rev_number":4504,"period_min":94.473322322109,"perigee_km":492.46782015726,"apogee_km":493.67028121613,"semimajor_km":6871.2060506867,"source":"CELESTRAK","updated_at":"2026-09-21T09:00:16.187767Z"}}}